[[{"header":{"parameterUnit":"m.s-1","parameterCategory":1,"la1":30.2991,"la2":30.254,"lo1":-89.0895,"lo2":-89.0444,"dy":0.0017,"dx":0.0017,"nx":28,"ny":28,"refTime":"2025-04-14T21:00:00:Z","depth":0,"parameterNumber":2,"parameterNumberName":"U-component_of_WINDS"},"data":[0,0,0,0,0,0,0,0,0,0,0,0,0,0,0,0,0,0,0,0,0,0,0,0,0,0,0,0,0,0,0,0,0,0,0,0,0,0,0,0,0,0,0,0,0,0,0,0,0,0,0,0,0,0,0,0,0,0,4.4379,4.4381,0,4.4573,4.4575,4.4577,4.4558,4.4555,4.4552,4.4549,4.4751,4.4759,4.4768,0,0,0,0,0,0,0,0,0,0,0,0,0,4.3993,4.4,4.4379,4.4381,4.4384,4.4573,4.4575,4.4578,4.4559,4.4555,4.4551,4.4548,4.4749,4.4758,4.4768,0,0,0,0,0,0,0,0,0,0,0,0,0,4.4171,4.4002,4.4378,4.4397,4.44,4.4572,4.4575,4.4579,4.4559,4.4555,4.455,4.4546,4.4746,4.4758,4.477,4.4937,0,0,4.4807,4.4813,0,0,0,0,0,0,0,0,4.4161,4.4185,4.4391,4.4396,4.44,4.4537,4.4513,4.4699,4.4561,4.4499,4.4549,4.4544,4.4684,4.4701,4.4748,4.4947,4.4955,4.4808,4.4816,4.4821,4.4825,0,0,0,0,0,0,0,4.4149,4.4177,4.4456,4.4394,4.44,4.4396,4.4416,4.4548,4.4615,4.4504,4.4503,4.4526,4.4685,4.4736,4.4752,4.4958,4.4808,4.4819,4.4827,4.4832,4.5301,4.5306,0,0,0,0,0,0,4.4131,4.4167,4.4449,4.4461,4.4267,4.4406,4.4429,4.4497,4.4613,4.4626,4.453,4.4524,4.4717,4.4738,4.4759,4.496,4.4821,4.4833,4.484,4.5296,4.5303,4.5308,0,0,0,0,0,0,4.4123,4.4157,4.4442,4.4314,4.435,4.4418,4.4495,4.4504,4.4554,4.4633,4.4645,4.4569,4.4714,4.4742,4.4892,4.4967,4.4838,4.4849,4.529,4.5298,4.5305,4.5365,0,0,0,0,0,0,4.4112,4.4154,4.4218,4.4315,4.4357,4.4571,4.4499,4.4511,4.4575,4.457,4.4673,4.4685,4.4713,4.4874,4.4904,4.4982,4.4859,4.5284,4.5294,4.5303,4.5357,4.5374,4.5389,0,0,0,0,0,4.4099,4.4228,4.4221,4.4256,4.4438,4.4575,4.4599,4.4627,4.4581,4.4646,4.4696,4.4682,4.4954,4.4889,4.4924,4.5006,4.5279,4.5291,4.5302,4.535,4.537,4.5388,0,0,0,0,0,0,4.414,4.4242,4.4235,4.44,4.4479,4.4572,4.4654,4.4648,4.4743,4.4734,4.4766,4.479,4.494,4.4989,4.4914,4.5173,4.5111,4.513,4.5135,4.5156,4.5171,4.5155,4.4869,0,0,0,0,0,4.4168,4.427,4.4354,4.4492,4.4531,4.4586,4.4647,4.4661,4.4745,4.4779,4.484,4.4922,4.5026,4.5094,4.5194,4.5364,4.5385,4.5438,4.5454,4.5466,4.5481,4.5572,4.5596,4.5346,4.5346,4.5345,0,0,4.4227,4.4296,4.4358,4.4502,4.4564,4.4669,4.4614,4.4729,4.4807,4.4796,4.494,4.4989,4.5083,4.5243,4.5317,4.5288,4.5555,4.5481,4.549,4.5499,4.5587,4.561,4.5631,4.5353,4.5352,4.5351,0,0,4.4388,4.4451,4.4571,4.4635,4.473,4.4765,4.4794,4.4888,4.4919,4.5064,4.5057,4.5152,4.5331,4.5397,4.5454,4.5639,4.5628,4.5671,4.5753,4.5841,4.5861,4.5878,4.5942,4.5964,4.5686,4.5686,4.5687,0,4.445,4.4607,4.4634,4.4749,4.4811,4.4805,4.4926,4.4987,4.5111,4.5154,4.512,4.5343,4.5406,4.558,4.5624,4.5672,4.5705,4.5658,4.5856,4.5874,4.589,4.5951,4.5975,4.5691,4.569,4.569,4.5689,0,4.4678,4.4787,4.4873,4.4989,4.5062,4.518,4.5224,4.5295,4.5303,4.5341,4.5489,4.5564,4.5678,4.5721,4.5731,4.5896,4.5875,4.5849,4.5786,4.5918,4.5975,4.5999,4.5697,4.5695,4.5694,4.5693,0,0,4.487,4.4999,4.5029,4.5081,4.5185,4.527,4.5388,4.5498,4.5556,4.5642,4.574,4.589,4.5865,4.593,4.5948,4.6026,4.6164,4.5989,4.5992,4.6017,4.6347,4.6365,4.6391,4.6159,4.6163,4.6167,4.6338,0,4.5039,4.5244,4.5271,4.5453,4.5553,4.5548,4.565,4.5725,4.5765,4.5856,4.59,4.6005,4.5966,4.6004,4.6081,4.6131,4.623,4.6119,4.6249,4.6253,4.6222,4.6422,4.6441,4.6599,4.6361,4.6365,4.6368,0,4.5264,4.5353,4.5544,4.5632,4.5675,4.5766,4.5867,4.5955,4.604,4.6063,4.6134,4.6142,4.6262,4.6197,4.6363,4.6286,4.6341,4.6374,4.6381,4.6392,4.6317,4.6436,4.6651,4.6673,4.6404,4.6401,4.6399,0,4.538,4.5549,4.5684,4.573,4.5837,4.59,4.5948,4.6028,4.6091,4.6181,4.6222,4.6326,4.6381,4.6461,4.6496,4.6446,4.6659,4.6597,4.668,4.668,4.6724,4.672,4.6948,4.6764,4.6764,4.6763,4.6763,0,4.5565,4.5682,4.5738,4.5821,4.5951,4.5981,4.611,4.6155,4.6226,4.6318,4.6322,4.6408,4.645,4.6543,4.6571,4.6703,4.6729,4.675,4.6756,4.6748,4.6745,4.6783,4.6772,4.677,4.6768,4.6767,4.6766,0,4.5717,4.5759,4.5906,4.5995,4.602,4.6111,4.6187,4.6268,4.6306,4.6422,4.6451,4.6512,4.6621,4.6664,4.6798,4.6817,4.6968,4.6966,4.6938,4.6939,4.7019,4.7009,4.7277,4.7312,4.7107,4.7109,4.7111,0,4.583,4.5919,4.6017,4.6077,4.6127,4.6226,4.629,4.6323,4.639,4.6492,4.656,4.6668,4.6756,4.6931,4.6987,4.7089,4.7088,4.7175,4.7104,4.7092,4.7086,4.7079,4.7087,4.7187,4.7189,4.7191,4.7192,0,4.6026,4.6042,4.6134,4.6233,4.6309,4.6389,4.6467,4.6517,4.6562,4.6637,4.6748,4.6816,4.6952,4.7059,4.7163,4.7213,4.721,4.7214,4.7239,4.723,4.7209,4.7218,4.6971,4.7208,4.7206,4.7205,4.7204,4.7204,4.616,4.6238,4.6318,4.642,4.6481,4.6554,4.6632,4.668,4.6772,4.6884,4.6899,4.7016,4.7098,4.7238,4.7292,4.7384,4.7361,4.7397,4.7406,4.7413,4.7417,4.7196,4.7404,4.7404,4.7403,4.7403,4.7403,0,4.6354,4.6404,4.6498,4.6605,4.6685,4.6675,4.676,4.6827,4.693,4.7006,4.7092,4.7218,4.7321,4.7385,4.7489,4.7551,4.7552,4.7577,4.7571,4.7582,4.7433,4.74,4.7574,4.7574,4.7574,4.7574,4.7574,4.7574,4.6463,4.6593,4.6619,4.678,4.683,4.6944,4.6993,4.706,4.7119,4.7259,4.7345,4.7385,4.7456,4.7565,4.7659,4.7675,4.7712,4.7738,4.7752,4.7611,4.7593,4.7576,4.7545,4.7746,4.7747,4.7893,4.7894,4.7895]},{"header":{"parameterUnit":"m.s-1","parameterCategory":1,"la1":30.2991,"la2":30.254,"lo1":-89.0895,"lo2":-89.0444,"dy":0.0017,"dx":0.0017,"nx":28,"ny":28,"refTime":"2025-04-14T21:00:00:Z","depth":0,"parameterNumber":3,"parameterNumberName":"V-component_of_WINDS"},"data":[0,0,0,0,0,0,0,0,0,0,0,0,0,0,0,0,0,0,0,0,0,0,0,0,0,0,0,0,0,0,0,0,0,0,0,0,0,0,0,0,0,0,0,0,0,0,0,0,0,0,0,0,0,0,0,0,0,0,2.5532,2.5534,0,2.5695,2.5697,2.5699,2.5703,2.5701,2.5699,2.5697,2.5865,2.5871,2.5877,0,0,0,0,0,0,0,0,0,0,0,0,0,2.5222,2.5228,2.5532,2.5534,2.5536,2.5695,2.5697,2.57,2.5703,2.5701,2.5698,2.5696,2.5863,2.587,2.5878,0,0,0,0,0,0,0,0,0,0,0,0,0,2.5368,2.523,2.5531,2.5557,2.5561,2.5695,2.5697,2.57,2.5704,2.57,2.5697,2.5695,2.586,2.5869,2.5879,2.5999,0,0,2.5908,2.5912,0,0,0,0,0,0,0,0,2.536,2.538,2.5551,2.5555,2.556,2.5675,2.565,2.58,2.5704,2.5649,2.5697,2.5693,2.5804,2.5818,2.5856,2.6007,2.6014,2.5909,2.5915,2.5919,2.5921,0,0,0,0,0,0,0,2.535,2.5373,2.5597,2.5553,2.5559,2.556,2.5577,2.5678,2.5742,2.5654,2.5654,2.5674,2.5806,2.5846,2.586,2.6016,2.5909,2.5917,2.5923,2.5927,2.6273,2.6277,0,0,0,0,0,0,2.5335,2.5364,2.5591,2.5601,2.545,2.5568,2.5587,2.5641,2.5741,2.5753,2.5676,2.5673,2.5832,2.5848,2.5865,2.6013,2.5919,2.5928,2.5933,2.627,2.6274,2.6278,0,0,0,0,0,0,2.5328,2.5355,2.5585,2.5483,2.5512,2.5576,2.5637,2.5646,2.5687,2.5758,2.5769,2.5706,2.583,2.5852,2.5965,2.6018,2.5932,2.5941,2.6266,2.6271,2.6276,2.6307,0,0,0,0,0,0,2.5319,2.5352,2.5399,2.5484,2.5518,2.5682,2.564,2.5652,2.5703,2.5701,2.5788,2.58,2.5829,2.5951,2.5975,2.603,2.5948,2.6261,2.6268,2.6274,2.6302,2.6313,2.6323,0,0,0,0,0,2.5308,2.5402,2.5401,2.5429,2.5577,2.5685,2.5705,2.5736,2.5707,2.5754,2.58,2.5797,2.6008,2.5963,2.599,2.6048,2.6258,2.6266,2.6274,2.6297,2.6311,2.6322,0,0,0,0,0,0,2.5322,2.5413,2.5414,2.5538,2.5604,2.5686,2.5746,2.5749,2.5825,2.582,2.5856,2.5876,2.5988,2.6029,2.5977,2.6169,2.613,2.6143,2.6139,2.6152,2.6162,2.615,2.5956,0,0,0,0,0,2.5339,2.5419,2.5495,2.5597,2.5629,2.5682,2.573,2.5749,2.5819,2.5847,2.59,2.5968,2.605,2.6103,2.6182,2.6307,2.6326,2.6361,2.6371,2.6379,2.6391,2.646,2.6476,2.6303,2.6303,2.6303,0,0,2.5376,2.5436,2.5484,2.5601,2.5654,2.5736,2.5706,2.5794,2.5855,2.586,2.5971,2.6012,2.609,2.621,2.6265,2.6248,2.6442,2.6389,2.6395,2.6403,2.647,2.6486,2.65,2.6309,2.6308,2.6307,0,0,2.5485,2.5538,2.5629,2.5683,2.5763,2.5797,2.5819,2.5901,2.5928,2.6039,2.6045,2.6118,2.6257,2.6313,2.6359,2.6488,2.6488,2.6512,2.6567,2.6634,2.6647,2.6659,2.6706,2.6722,2.6523,2.6523,2.6523,0,2.5521,2.5645,2.5675,2.5764,2.5815,2.5822,2.5914,2.5965,2.6067,2.6102,2.608,2.6256,2.6309,2.6441,2.6472,2.651,2.6536,2.6503,2.6643,2.6655,2.6667,2.6712,2.6729,2.6526,2.6526,2.6525,2.6525,0,2.5685,2.5771,2.5834,2.5933,2.5991,2.608,2.6124,2.6179,2.6192,2.6228,2.6341,2.6404,2.6496,2.6529,2.6542,2.6664,2.665,2.6635,2.6597,2.6686,2.6728,2.6745,2.6529,2.6528,2.6528,2.6527,0,0,2.5809,2.5922,2.5945,2.599,2.6078,2.6145,2.6235,2.6324,2.6371,2.6441,2.6517,2.6634,2.6621,2.6673,2.6693,2.6751,2.6849,2.6729,2.6732,2.675,2.6987,2.6998,2.7018,2.6849,2.6853,2.6855,2.698,0,2.5929,2.6089,2.6118,2.6257,2.6337,2.6344,2.6422,2.6485,2.652,2.6593,2.6632,2.6715,2.6691,2.6722,2.6781,2.6825,2.6897,2.6816,2.6921,2.6924,2.6903,2.704,2.7053,2.7168,2.6997,2.7,2.7002,0,2.609,2.6164,2.6311,2.6388,2.6423,2.6493,2.6576,2.6646,2.6716,2.6738,2.6796,2.6809,2.6902,2.6857,2.6986,2.693,2.6974,2.7002,2.7008,2.702,2.697,2.7056,2.7205,2.7223,2.7028,2.7026,2.7024,0,2.6167,2.6302,2.6408,2.6446,2.6539,2.6587,2.6628,2.6696,2.6748,2.6821,2.6855,2.6937,2.6983,2.7047,2.7081,2.7046,2.7207,2.7166,2.7228,2.7228,2.7264,2.7261,2.7423,2.729,2.729,2.7289,2.7289,0,2.6298,2.6388,2.6444,2.6509,2.661,2.6642,2.674,2.678,2.684,2.6913,2.6924,2.6992,2.7032,2.7106,2.7133,2.7236,2.7256,2.7277,2.7283,2.7277,2.7274,2.7307,2.7301,2.7294,2.7293,2.7292,2.7291,0,2.6402,2.6442,2.6558,2.6636,2.6657,2.6728,2.6795,2.6858,2.6893,2.6985,2.7008,2.7063,2.7151,2.7191,2.7299,2.7317,2.7434,2.7434,2.741,2.7413,2.7473,2.7467,2.7663,2.769,2.7538,2.7539,2.7541,0,2.6483,2.6553,2.6638,2.6687,2.6729,2.6809,2.6861,2.6895,2.6949,2.7034,2.7087,2.7175,2.7247,2.7386,2.7435,2.7518,2.7521,2.7583,2.7533,2.7524,2.7523,2.7519,2.7526,2.7593,2.7594,2.7596,2.7597,0,2.6624,2.6641,2.6716,2.6798,2.686,2.6927,2.6992,2.7032,2.7076,2.7136,2.7225,2.7281,2.7391,2.7478,2.7563,2.7605,2.7609,2.7611,2.7631,2.7625,2.7609,2.7619,2.7436,2.7607,2.7606,2.7606,2.7605,2.7604,2.672,2.6782,2.6851,2.6934,2.6987,2.7047,2.711,2.7153,2.7228,2.732,2.7335,2.743,2.7498,2.7613,2.7657,2.7732,2.7717,2.7745,2.7752,2.7759,2.7762,2.7596,2.7748,2.7747,2.7747,2.7747,2.7747,0,2.6862,2.6907,2.6983,2.7073,2.7139,2.7135,2.7207,2.7262,2.7345,2.7408,2.7479,2.7581,2.7665,2.772,2.7805,2.7854,2.7858,2.7875,2.7873,2.7883,2.777,2.7746,2.7871,2.7871,2.7871,2.7871,2.7871,2.7871,2.6944,2.7048,2.7073,2.7203,2.7247,2.734,2.7381,2.7437,2.7487,2.7601,2.7671,2.7706,2.7766,2.7855,2.7932,2.7946,2.7977,2.7995,2.8009,2.7903,2.789,2.7878,2.7855,2.8001,2.8001,2.8115,2.8116,2.8117]}]]